FRIANT DAM (MILLERTON) (MIL)

Elevation: 581' · SAN JOAQUIN R basin · Operator: US Bureau of Reclamation


Station comments:

11/19/2014Hourly storage has resumed as of 11/19/2014. It had previously stopped at 2/26/1998.


Provisional data, subject to change.
Query executed Monday at 20:03:46   clock

Select a sensor type for a plot of data.
Note: Reservoir Flows are daily averages.

Earlier

Date RES ELE    STORAGE    RES CHG    TOC STO    ABV TOC    OUTFLOW    INFLOW    EVAP    FNF    RIV REL    PPT INC    SPILL   
 FEET   AF   AF   AF   AF   CFS   CFS   CFS   CFS   CFS   INCHES   CFS  
11/23/2014 485.95 176752 -181 435500 -258748 164 74 1 128 164 0.00 0
11/24/2014 485.86 176519 -233 435500 -258981 164 53 6 125 164 0.00 0
11/25/2014 485.79 176338 -181 435500 -259162 164 80 7 151 164 0.00 0
11/26/2014 485.70 176106 -232 435500 -259394 164 50 3 85 164 0.00 0
11/27/2014 485.62 175899 -207 435500 -259601 164 68 8 54 164 0.00 0
11/28/2014 485.54 175692 -207 435500 -259808 164 68 8 -40 164 0.00 0
11/29/2014 485.41 175356 -336 435500 -260144 164 8 13 28 164 0.00 0
11/30/2014 485.36 175227 -129 435500 -260273 156 101 10 -39 156 0.05 0
12/01/2014 485.35 175201 -26 435500 -260299 151 145 7 253 151 0.00 0
12/02/2014 485.46 175485 284 435500 -260015 151 299 5 494 151 0.34 0
12/03/2014 485.58 175795 310 435500 -259705 151 317 10 672 151 0.00 0
12/04/2014 485.70 176106 311 435500 -259394 161 324 6 405 161 0.00 0
12/05/2014 485.78 176312 206 435500 -259188 166 275 5 280 166 0.00 0
12/06/2014 485.87 176545 233 435500 -258955 166 291 8 216 166 0.00 0
12/07/2014 485.95 176752 207 435500 -258748 166 281 11 217 166 0.00 0
12/08/2014 486.03 176959 207 435500 -258541 166 277 7 512 e 166 0.00 0
12/09/2014 486.12 177194 235 435500 -258306 166 286 2 452 e 166 0.00 0
12/10/2014 486.23 177481 287 435500 -258019 166 312 1 155 166 0.00 0
12/11/2014 486.40 177925 444 435500 -257575 158 386 4 193 158 1.12 0
12/12/2014 486.68 178655 730 435500 -256845 151 521 2 1034 151 0.46 0
12/13/2014 486.84 179073 418 435500 -256427 151 365 3 504 151 0.00 0
12/14/2014 486.97 179412 339 435500 -256088 151 327 5 337 151 0.00 0
12/15/2014 487.11 179779 367 435500 -255721 142 330 3 289 142 0.15 0
12/16/2014 487.27 180200 421 435500 -255300 137 354 5 422 137 1.06 0
12/17/2014 487.49 180779 579 435500 -254721 137 434 5 475 137 0.04 0
12/18/2014 487.65 181200 421 435500 -254300 137 350 1 357 137 0.00 0
12/19/2014 487.80 181595 395 435500 -253905 144 345 2 264 144 0.02 0
12/20/2014 487.86 181753 158 435500 -253747 152 233 1 326 152 0.00 0
12/21/2014 487.87 181779 26 -- -- 152 170 5 245 152 0.01 0
12/22/2014 -- -- -- -- -- -- -- -- -- -- -- --

Later | Latest

Warning! This data is preliminary and subject to revision.

Show MIL Map | Plot MIL Data | 1 Month MIL Data | Real-Time MIL Data | MIL Info